Location: Central Falls
(41.8900°N, 71.3929°W)
Time: 13:28:05
(UTC+00:00)

SR - Visible Passes

Search period start: 03 December 2023 00:00
Search period end: 13 December 2023 00:00
Orbit: 571 x 872 km, 66.7° (Epoch: 03 December)

Date Brightness Start Highest point End Pass type
(mag) Time Alt. Az. Time Alt. Az. Time Alt. Az.
03 Dec ? 23:37:49 10° N 23:38:35 12° N 23:38:35 12° N visible
04 Dec ? 22:47:45 10° NNE 22:48:37 11° NNE 22:48:37 11° NNE visible
05 Dec ? 00:27:21 10° NNW 00:27:55 13° NNW 00:27:55 13° NNW visible
05 Dec ? 23:36:11 10° N 23:38:00 17° N 23:38:00 17° N visible
06 Dec ? 22:45:22 10° N 22:48:11 15° NNE 22:48:11 15° NNE visible
07 Dec ? 00:26:05 10° NNW 00:27:29 18° NNW 00:27:29 18° NNW visible
07 Dec ? 23:34:44 10° NNW 23:37:45 26° N 23:37:45 26° N visible
08 Dec ? 01:16:52 10° NW 01:17:04 11° NW 01:17:04 11° NW visible
08 Dec ? 22:43:38 10° N 22:48:05 22° NE 22:48:09 22° NE visible
09 Dec ? 00:24:57 10° NW 00:27:27 26° NW 00:27:27 26° NW visible
09 Dec ? 21:52:56 10° N 21:55:50 14° NE 21:58:39 10° ENE visible
09 Dec ? 23:33:24 10° NNW 23:38:02 50° NNE 23:38:02 50° NNE visible
10 Dec ? 01:16:25 10° WNW 01:17:22 13° WNW 01:17:22 13° WNW visible
10 Dec ? 22:42:06 10° NNW 22:47:17 33° NE 22:48:52 28° E visible
11 Dec ? 00:24:02 10° NW 00:28:14 38° W 00:28:14 38° W visible
11 Dec ? 21:51:03 10° N 21:55:11 20° NE 21:59:10 10° E visible
11 Dec ? 23:32:12 10° NNW 23:37:59 86° WSW 23:39:28 50° SSE visible
12 Dec ? 01:17:07 10° W 01:18:51 12° W 01:18:51 12° W visible
12 Dec ? 22:40:42 10° NNW 22:46:18 50° NE 22:51:23 11° SE visible
